Theta_e
342 344 344 343 343 342 342 341 341 341 341 341 341 341 341 341 341 340 340 339 338 338 337 336 335 335 336 336 335 335 335 335 335 336 336 336 336 336 336 336 336 336 336 337 336 337 336 337 336 335 335 335 335 335 334 332 332 331 331 331 331 332 333 334 333 332 332 332 332 331 331 331 331 331 331 331 331 330 329 328 329 331 331 330 331
341 343 343 343 342 342 341 341 342 341 341 341 341 340 340 340 340 340 340 339 338 337 337 336 336 336 334 335 335 335 334 335 336 336 337 337 337 337 337 337 336 336 336 337 337 336 336 336 336 336 335 335 335 335 334 332 332 331 331 331 331 333 333 334 333 332 331 331 331 331 331 331 331 331 331 331 331 331 330 328 329 331 331 331 331
341 341 343 343 342 341 340 341 342 341 340 340 340 340 340 340 340 339 339 339 338 337 337 336 336 335 334 335 335 334 334 335 336 336 336 337 337 337 337 337 336 336 336 336 337 336 336 336 336 335 335 335 335 335 334 333 333 333 332 331 331 332 333 333 333 333 331 330 330 331 331 330 330 330 330 330 331 330 329 328 329 330 331 331 330
341 340 342 343 342 341 340 341 342 341 340 339 340 340 339 340 340 339 339 338 338 337 337 337 336 336 337 336 334 333 333 335 336 336 336 336 336 336 336 337 336 336 336 336 336 336 336 336 336 335 335 335 335 335 334 334 334 334 333 332 331 331 332 332 333 333 332 331 330 330 331 331 331 330 329 330 330 330 330 330 330 330 330 330 330
342 341 341 342 343 342 341 341 341 341 341 340 340 340 339 340 340 339 338 336 336 336 336 336 336 337 337 336 336 335 334 334 336 336 336 336 336 336 336 336 336 336 336 335 335 335 335 336 336 335 335 335 335 335 334 334 334 333 333 332 332 331 331 331 332 332 333 332 330 329 329 330 331 331 330 330 329 329 330 330 330 331 330 330 330
342 341 340 341 343 343 341 341 341 341 342 341 340 340 340 340 339 338 337 335 335 335 336 335 336 336 334 335 336 334 331 335 337 336 336 336 336 336 336 335 335 334 334 333 333 333 334 335 335 334 335 335 335 334 334 334 333 333 333 332 332 332 331 331 332 332 332 332 331 331 330 328 330 331 330 329 328 328 329 329 329 330 330 329 328
341 340 339 341 343 343 342 341 340 341 341 342 341 340 340 340 339 337 336 335 334 333 335 335 335 335 333 334 335 333 332 336 337 336 336 336 336 335 334 334 334 333 333 333 333 332 333 333 333 333 334 335 334 333 334 333 333 333 333 332 332 332 332 331 332 332 332 332 331 331 330 329 330 331 330 329 328 328 328 327 327 328 328 327 325
338 338 339 341 342 342 341 341 340 340 341 341 340 340 340 340 338 337 335 334 333 333 334 334 334 335 335 334 333 332 333 334 335 337 336 336 336 335 334 334 333 333 333 333 332 332 332 331 332 332 332 333 332 332 332 332 333 333 332 333 332 332 332 331 331 332 332 332 331 331 331 331 330 331 330 329 329 328 327 325 325 326 326 325 324
336 337 338 340 341 341 341 341 340 340 340 339 339 339 340 339 336 334 334 333 333 335 334 333 335 335 334 333 331 330 330 331 334 337 336 335 336 335 334 333 333 333 332 332 332 332 331 331 331 331 331 332 331 331 332 332 333 333 333 333 333 333 332 330 331 332 332 332 331 331 331 331 330 330 330 329 329 328 327 327 326 325 325 325 323
337 337 338 340 341 340 340 340 339 339 337 335 335 336 337 337 334 332 332 333 334 334 333 334 335 334 333 332 331 330 330 332 335 336 335 335 335 334 333 332 332 332 332 332 331 331 331 331 331 331 332 332 331 331 332 332 333 333 333 333 333 334 333 331 330 330 331 331 330 330 330 330 330 330 329 329 329 329 328 328 327 326 325 324 322
337 336 338 340 339 339 338 337 335 334 333 332 331 332 334 335 334 330 329 331 334 334 333 334 333 333 333 331 331 332 332 333 335 335 334 334 333 333 332 332 332 332 331 331 331 331 331 330 331 331 331 332 331 331 332 333 333 333 333 332 332 333 333 332 331 330 329 329 329 330 330 330 330 330 329 329 329 329 328 328 328 327 325 323 320
337 337 337 337 337 337 336 332 330 331 331 331 330 330 332 334 333 331 329 330 333 333 332 332 332 332 333 332 332 333 333 334 335 334 334 334 332 332 332 331 331 331 330 330 330 330 330 330 330 330 330 331 331 332 333 332 332 332 332 332 332 332 332 332 332 331 330 330 330 330 329 329 329 329 329 329 329 329 328 328 327 325 324 321 317
336 336 336 336 336 337 334 330 330 331 331 332 332 332 333 332 331 330 329 330 332 332 330 330 331 332 333 333 333 333 333 334 334 334 333 333 332 331 331 331 331 331 330 330 330 330 330 329 329 329 329 330 331 332 333 332 332 332 332 332 332 332 332 331 331 331 330 330 331 330 329 329 329 329 329 329 329 328 328 328 326 324 322 318 314
335 336 336 336 336 336 333 330 330 331 331 332 332 332 331 330 328 328 329 330 331 331 330 329 331 333 333 333 333 334 334 333 333 334 333 332 331 331 330 330 330 330 330 330 330 330 329 329 329 328 329 329 329 330 331 332 332 332 332 332 331 331 331 331 330 331 331 331 330 329 329 329 328 329 330 329 329 328 328 327 326 324 321 317 314
335 336 335 335 335 334 332 331 331 331 332 332 331 331 330 328 327 326 327 329 330 330 330 330 332 332 332 331 332 333 333 333 334 333 332 332 331 330 329 329 329 329 329 329 329 329 329 329 328 328 329 329 328 328 329 330 332 332 332 332 332 331 331 330 330 331 330 330 330 329 328 329 330 330 329 329 328 328 328 327 326 324 320 317 316
334 333 333 332 332 332 331 330 330 330 331 331 330 330 329 328 327 327 327 329 330 329 330 331 332 332 330 329 331 333 333 333 334 333 332 331 330 330 329 329 328 328 328 328 328 328 329 329 328 328 328 328 328 328 327 328 330 331 332 332 332 331 331 331 331 331 331 330 330 329 328 328 330 330 330 329 328 326 326 326 326 323 320 318 316
332 331 329 330 331 331 330 329 329 329 330 330 329 329 329 329 329 329 328 329 329 329 330 330 331 331 330 329 331 332 332 332 333 333 332 331 330 330 329 329 329 328 328 328 328 328 329 329 328 328 328 328 327 327 326 327 329 329 330 332 333 332 331 331 331 331 331 331 330 330 329 328 330 330 330 330 329 327 326 325 325 323 320 320 317
331 330 328 330 331 331 330 330 330 330 330 330 329 329 329 329 330 329 329 330 329 329 330 330 329 330 331 330 330 332 332 332 332 332 332 331 330 330 329 329 329 328 328 328 327 327 328 328 327 327 327 327 327 326 326 327 327 327 328 329 331 331 331 331 331 331 331 331 330 330 329 329 329 330 329 330 329 328 327 326 325 322 320 320 319
330 329 329 330 331 331 331 331 331 331 331 330 330 330 330 331 330 329 330 330 330 330 331 330 330 332 332 331 331 332 332 331 331 331 330 330 330 330 329 329 328 328 327 327 327 326 326 327 327 327 327 327 326 326 325 326 326 326 327 327 329 330 330 330 330 331 331 331 331 330 329 329 330 329 330 330 330 329 328 326 325 322 320 320 319
329 330 330 330 331 331 331 330 331 331 331 331 331 331 332 332 332 330 330 331 330 330 331 331 332 332 332 332 332 332 331 330 329 329 329 329 329 329 329 328 328 327 327 327 326 325 325 326 325 326 326 326 326 326 325 325 325 325 325 326 327 328 327 327 327 329 330 330 331 331 330 330 330 330 330 330 329 329 328 326 324 321 320 320 319
329 329 330 330 331 331 330 330 330 330 331 331 331 332 332 332 332 331 330 330 330 331 331 331 332 332 332 332 331 331 330 329 328 329 329 329 328 329 329 328 328 328 327 326 325 324 324 325 325 325 325 325 326 325 325 325 325 325 324 324 325 325 325 324 325 326 328 330 331 330 330 330 329 330 329 328 329 329 327 324 322 320 318 319 319
330 329 329 329 330 330 330 330 330 330 331 331 331 332 332 331 331 331 331 331 330 331 331 329 330 331 330 331 331 330 330 329 329 330 329 328 328 329 328 328 328 327 326 326 325 325 324 324 324 324 323 324 325 324 324 325 324 324 324 324 323 323 324 324 324 324 326 330 331 330 330 330 329 329 328 326 327 328 326 323 321 319 317 317 317
327 328 328 329 330 330 330 330 330 329 330 330 331 331 331 331 330 331 332 332 331 332 330 325 328 332 331 331 331 329 329 330 330 330 328 328 328 328 328 329 327 327 326 326 325 324 323 322 322 323 323 324 324 324 324 324 324 324 324 324 323 322 323 323 323 322 323 327 331 331 330 330 330 329 327 326 326 325 324 322 320 319 317 316 316
322 322 324 326 328 329 330 330 329 329 329 329 329 330 331 331 330 330 332 333 331 331 329 326 328 330 329 329 329 328 329 330 330 330 329 328 328 327 328 328 327 326 325 325 323 322 321 322 322 322 323 324 324 323 324 323 323 323 323 323 322 322 322 322 321 321 322 324 329 331 330 330 330 329 327 325 324 323 322 320 319 319 318 317 316
318 318 319 320 321 324 328 329 328 328 328 328 328 329 331 331 331 331 332 332 330 329 330 329 327 326 325 328 329 330 331 331 330 329 328 328 328 327 327 327 326 325 324 322 321 320 320 321 320 320 321 322 322 322 322 322 322 322 322 322 322 321 321 322 320 320 321 323 327 330 330 330 329 329 327 324 322 321 320 319 319 319 318 318 317
315 316 317 318 318 319 323 326 328 328 327 327 326 328 330 330 330 330 331 330 330 330 330 328 326 325 326 328 331 331 331 330 329 328 327 327 327 327 327 326 324 323 321 320 320 320 319 319 319 318 318 318 318 318 318 319 320 320 320 322 323 322 321 321 321 320 320 322 325 329 330 329 329 329 327 324 322 322 320 319 319 318 318 318 319
313 314 315 316 316 317 317 319 322 325 327 326 326 326 327 328 328 329 329 330 330 330 329 326 325 326 326 328 330 330 329 329 328 327 327 326 326 326 325 323 322 321 321 320 320 319 319 318 317 317 317 317 316 316 316 316 317 319 319 320 322 322 321 320 320 320 320 320 322 327 329 329 329 328 327 326 325 323 322 321 320 320 319 318 319
311 312 312 313 313 314 315 314 315 319 322 323 324 325 326 326 327 327 328 329 329 329 328 327 326 327 327 328 328 327 327 328 327 326 326 325 325 323 322 321 320 321 320 319 319 318 318 317 317 317 317 316 316 316 316 316 316 317 318 319 320 322 321 320 320 320 320 319 320 322 326 327 328 327 325 325 325 324 323 321 321 321 321 320 320
309 309 310 310 310 311 312 312 312 313 316 318 320 321 323 324 326 326 327 327 328 328 328 328 327 327 326 325 324 324 325 326 326 326 325 324 324 322 322 322 321 320 319 319 318 318 318 317 317 316 316 317 318 318 317 317 318 317 317 317 318 319 321 321 320 319 319 319 319 320 321 322 323 322 321 321 321 320 320 320 320 321 321 320 320
307 307 308 308 308 309 310 310 310 311 312 314 316 317 318 319 320 323 324 325 326 327 326 326 325 325 324 323 322 322 322 323 324 324 322 321 320 319 319 319 319 320 320 319 319 319 319 318 318 319 319 319 318 317 314 315 316 317 318 318 317 317 318 320 320 319 319 319 319 319 317 315 315 316 316 316 316 316 317 318 319 320 320 320 320
306 306 306 306 306 307 307 307 308 309 309 310 312 314 314 314 315 318 319 320 321 322 322 322 323 322 322 322 322 321 321 321 321 320 318 316 315 315 316 315 316 317 316 315 316 318 320 321 321 320 319 316 314 314 313 313 314 315 317 319 319 318 317 318 319 319 319 318 319 319 317 314 313 314 314 313 314 313 314 314 315 316 317 318 319
304 304 304 304 304 305 305 305 306 306 307 307 309 310 310 310 312 314 316 316 316 316 316 318 320 321 321 321 321 321 320 319 318 317 316 315 315 316 317 316 316 315 314 314 315 317 319 320 318 317 316 315 314 313 313 313 313 314 315 316 318 319 318 318 318 319 319 319 318 319 319 317 317 317 316 314 313 313 312 312 313 312 313 313 314
303 303 302 303 303 303 303 303 303 304 304 305 307 307 307 308 308 310 313 314 313 312 312 313 314 315 317 318 318 318 317 317 317 317 316 317 317 317 317 317 316 316 316 317 318 319 319 318 316 315 315 316 316 315 315 314 313 313 313 314 317 319 318 318 319 319 319 320 319 319 319 320 319 316 315 316 316 315 314 313 312 312 312 312 312
301 301 302 302 302 302 302 302 302 302 302 303 304 304 305 306 307 309 310 310 309 309 310 311 312 311 311 313 314 314 314 314 314 315 315 316 315 315 315 316 316 317 318 318 318 318 318 316 314 313 314 315 316 317 318 317 316 315 313 313 317 319 318 319 320 320 320 320 320 320 320 320 320 318 317 318 319 319 318 317 315 315 315 315 314
301 300 301 301 301 301 301 301 302 302 301 302 303 303 303 304 305 306 307 306 307 307 307 308 309 309 309 310 310 310 310 310 310 311 312 312 311 310 311 312 313 315 315 315 315 315 315 314 313 311 311 312 312 314 317 318 318 318 316 317 318 319 319 319 320 320 320 320 320 320 319 319 320 321 320 319 318 319 320 320 319 319 319 318 318
300 300 300 301 300 300 300 300 301 301 300 301 301 301 302 302 303 304 304 304 304 304 304 305 305 305 306 307 307 306 306 307 307 307 308 307 307 307 307 308 308 309 310 310 310 310 311 312 312 310 308 307 307 310 312 315 317 318 319 320 322 322 321 322 322 321 321 320 320 320 320 319 319 320 319 316 315 316 318 319 319 319 319 319 320
301 300 300 300 300 299 299 299 299 300 300 300 300 300 301 301 301 302 302 302 302 302 302 302 303 303 303 304 305 304 304 304 305 305 305 305 304 304 304 304 304 304 304 304 305 306 306 307 308 309 307 305 304 306 307 309 312 315 316 318 320 322 322 323 324 323 322 322 322 320 319 320 321 321 321 318 315 315 317 319 319 319 319 319 320
301 301 301 300 300 300 298 298 299 299 299 299 299 299 300 300 301 301 301 301 301 301 301 301 302 302 302 302 303 303 303 303 302 302 303 303 304 305 305 305 305 305 304 303 303 303 302 303 304 305 305 304 303 303 304 306 307 309 311 314 315 318 320 320 322 323 323 323 323 320 319 321 323 323 322 320 319 317 318 320 321 320 321 321 321
300 300 300 300 300 299 298 298 299 299 299 298 298 298 299 299 300 301 301 301 301 301 301 301 301 301 301 301 302 302 302 301 301 301 301 301 301 302 303 303 304 305 304 303 303 303 303 302 301 300 301 302 302 301 301 302 303 304 306 309 312 314 315 315 316 317 319 320 321 321 319 319 320 322 321 321 319 318 318 320 322 322 322 322 322
300 299 299 299 298 298 297 298 298 299 299 298 298 298 298 299 299 300 300 301 301 301 301 301 301 301 301 301 301 302 302 302 302 302 301 301 300 300 300 300 301 302 302 302 303 303 303 303 301 300 299 299 300 300 299 298 300 300 300 304 307 309 309 310 311 312 313 315 317 318 318 316 316 317 318 319 319 318 317 318 320 322 322 322 322
299 299 299 298 297 297 296 297 297 297 298 298 298 298 298 298 298 298 299 299 300 300 300 300 300 300 301 301 301 301 301 302 302 302 302 302 302 301 301 302 302 302 303 303 303 303 303 303 302 301 301 299 298 298 298 297 297 298 298 300 303 303 302 304 307 308 309 311 313 314 315 314 312 310 310 312 315 316 317 317 318 319 320 320 320
299 298 298 298 298 297 296 296 296 296 296 297 297 298 298 298 297 297 297 298 299 299 299 299 299 299 300 300 300 300 301 301 301 302 302 302 302 302 302 303 303 303 303 303 303 303 304 303 303 303 302 301 299 297 296 296 296 296 296 297 299 299 298 300 305 306 307 308 309 310 311 310 306 304 303 305 307 309 311 314 316 318 319 319 319
299 298 298 297 298 298 297 296 296 296 296 296 296 296 297 297 297 296 295 295 296 297 298 298 298 299 299 299 299 299 300 300 301 301 302 302 302 301 301 302 303 303 304 304 303 303 304 304 303 303 302 302 301 299 296 295 295 295 295 295 296 296 296 298 301 303 304 305 306 307 307 305 302 300 301 302 302 303 305 307 309 312 314 316 317
299 299 298 298 298 298 297 296 296 296 296 296 295 296 296 297 296 296 295 295 295 296 297 297 297 297 298 298 298 298 298 299 300 301 301 302 302 302 301 302 302 302 303 303 303 303 303 303 303 303 302 301 301 301 298 296 295 295 295 294 294 295 295 296 297 300 303 304 304 304 302 300 299 299 300 300 301 301 302 302 304 305 307 310 312
300 299 299 299 299 298 297 296 296 296 297 296 296 296 296 296 296 296 296 296 296 297 297 298 297 298 298 298 298 298 298 298 299 300 301 301 302 302 302 302 302 302 302 302 302 302 302 302 302 303 302 302 301 301 300 299 297 296 296 296 295 295 295 294 295 297 300 300 299 299 298 298 298 299 299 300 300 301 302 302 303 303 304 306 308
299 299 299 299 298 298 297 297 296 296 297 297 296 297 296 296 296 297 297 297 297 297 298 298 298 298 298 299 299 299 299 299 300 300 301 301 301 302 302 302 302 302 302 302 302 302 302 302 302 302 302 302 301 301 301 300 299 299 298 297 297 297 296 296 296 297 298 298 297 297 297 297 298 298 298 299 299 300 301 302 303 304 304 304 306
299 299 299 298 298 298 297 297 297 296 296 296 296 296 296 296 297 297 297 297 297 298 298 298 298 298 298 299 299 299 300 300 300 301 301 301 301 301 301 301 302 302 302 302 302 302 302 302 302 302 302 302 302 302 301 300 299 298 298 298 299 299 298 298 299 299 299 299 299 298 297 298 298 299 299 299 300 301 301 303 305 306 306 305 306
299 299 299 298 298 298 298 297 297 297 296 296 296 296 296 296 296 297 297 297 297 297 298 298 298 298 298 298 298 299 300 300 300 300 300 300 300 301 301 301 300 300 301 301 302 302 302 301 301 302 301 302 302 302 300 298 297 296 296 297 298 299 299 299 299 299 299 299 299 299 300 301 302 302 302 302 303 304 305 305 306 307 306 306 306
299 299 299 299 298 299 298 298 298 298 297 297 296 296 296 296 296 296 297 297 297 297 297 298 298 298 298 298 298 299 299 300 300 300 300 299 298 299 300 300 299 298 297 298 299 300 300 299 300 300 300 301 302 301 298 296 296 296 296 296 296 297 297 298 298 298 298 299 300 301 302 302 303 303 303 303 304 304 305 305 305 305 305 305 306
299 299 299 299 299 299 299 299 299 299 298 298 298 297 297 297 296 297 297 297 297 297 297 298 298 298 298 298 299 299 299 299 300 300 300 299 297 297 297 298 298 297 296 296 296 297 297 296 298 299 299 298 298 298 297 296 296 296 296 296 296 297 297 298 299 299 299 299 300 301 302 302 302 302 302 302 303 303 303 304 304 304 304 304 304
299 299 299 299 299 299 299 299 299 299 298 298 298 298 298 297 297 297 297 297 297 297 298 298 298 297 298 298 299 299 299 299 300 300 300 300 299 298 297 297 297 297 296 296 296 296 295 295 296 297 297 296 296 297 296 296 296 297 297 297 297 297 298 298 299 299 299 300 301 301 301 301 301 301 301 302 302 303 303 303 304 304 304 304 303
Wind_Speed
13 18 18 18 19 17 19 20 21 21 20 21 24 25 24 23 23 24 25 23 23 23 21 20 20 20 19 17 18 17 17 15 13 13 12 12 12 12 12 11 11 11 10 10 9 9 8 7 7 7 7 7 6 6 7 7 7 8 8 8 9 8 8 8 9 11 12 9 8 9 8 6 5 6 6 6 6 7 8 8 8 6 6 6 5
13 16 16 18 19 18 19 21 20 20 20 22 24 25 25 25 25 25 24 23 25 25 23 21 21 22 21 20 19 18 19 18 15 14 13 12 12 12 11 10 11 11 10 10 10 9 8 8 8 8 8 8 7 7 8 8 8 9 9 9 9 9 8 8 10 11 12 11 9 8 8 6 5 5 5 5 5 6 6 6 6 4 4 5 4
14 15 15 18 20 18 19 20 18 18 20 22 23 24 25 27 27 26 25 23 24 25 25 23 22 22 21 19 20 20 20 18 15 14 13 13 12 11 10 10 10 10 10 10 10 9 9 8 8 8 8 9 8 8 9 9 9 9 9 9 9 9 8 9 10 8 9 14 11 6 5 5 4 4 5 5 5 5 5 5 5 4 3 3 4
16 16 16 18 20 19 19 19 17 18 21 22 23 25 26 26 27 27 27 25 24 25 26 24 22 20 17 18 20 20 19 16 14 13 13 12 12 11 10 11 11 10 11 11 10 9 9 9 8 8 9 9 9 8 9 10 10 10 9 9 9 9 9 9 9 5 5 9 7 4 4 3 3 5 6 6 5 5 5 5 5 4 4 3 3
16 17 17 18 20 20 20 19 18 18 20 21 23 26 25 26 26 25 24 23 23 24 25 23 21 19 16 16 16 13 13 14 14 13 13 12 12 12 11 12 11 11 11 11 10 9 10 9 9 9 9 9 9 8 9 9 10 10 10 9 9 9 9 9 8 5 5 5 1 4 4 1 2 7 8 6 5 5 5 4 4 3 4 4 3
15 16 16 17 18 19 18 17 16 18 19 20 23 25 25 24 24 23 24 26 25 23 23 22 21 22 20 19 17 15 14 14 15 15 14 13 12 12 12 12 11 11 11 10 10 9 9 10 9 9 9 9 9 8 8 9 10 10 10 10 9 8 9 9 8 6 6 4 1 3 4 4 4 9 7 5 6 6 4 4 4 3 3 4 5
13 13 14 13 13 14 14 14 15 18 19 20 22 24 24 22 23 26 29 29 25 23 23 21 21 23 22 22 21 19 17 15 14 14 14 13 12 12 11 11 11 11 11 10 10 9 9 10 10 10 10 10 9 9 8 9 10 10 10 10 10 9 9 9 9 9 8 5 2 2 3 5 7 8 5 5 6 5 6 6 5 5 4 4 7
11 11 12 12 11 12 13 14 17 19 20 20 20 20 21 21 24 30 31 25 21 24 25 23 20 21 22 22 21 19 18 17 15 14 14 13 12 11 10 10 11 11 10 10 10 10 10 10 10 10 10 10 10 9 9 9 9 10 10 10 9 10 10 9 10 9 9 8 5 4 4 5 7 5 3 5 6 5 6 7 6 6 7 7 8
10 10 10 11 12 14 17 19 21 20 18 17 17 18 19 20 25 32 31 22 19 23 25 24 19 18 19 17 17 18 16 16 16 14 13 13 12 12 11 10 10 10 10 9 9 9 10 10 10 10 10 10 10 10 10 10 9 9 10 10 9 9 9 10 12 11 9 9 8 8 7 8 6 4 4 5 5 6 6 6 7 7 8 9 8
9 9 9 12 15 16 17 18 14 11 10 8 8 9 12 16 24 34 30 19 17 21 23 21 16 16 17 13 12 14 13 12 14 14 14 14 14 13 12 11 11 9 9 9 9 9 10 10 10 10 11 10 9 9 10 10 9 9 10 9 9 8 7 9 11 11 11 10 11 10 8 7 6 6 6 5 5 7 6 8 11 10 10 10 8
9 9 9 10 12 12 10 6 6 7 8 9 6 4 7 11 15 27 28 20 17 19 20 18 15 17 18 15 13 14 14 12 13 15 15 15 15 15 14 12 11 10 9 9 9 9 9 10 10 9 10 10 9 9 9 10 9 9 9 9 9 8 7 7 7 8 9 10 10 9 7 7 6 5 7 7 6 7 7 8 11 11 11 11 8
8 9 9 8 9 10 10 10 10 9 9 11 11 10 10 10 6 12 20 19 17 16 16 16 17 17 18 18 17 16 15 14 14 16 16 16 16 15 14 13 12 11 10 9 9 9 8 9 9 9 9 9 8 8 8 8 8 9 8 8 8 7 7 6 6 8 9 9 9 9 9 8 7 4 6 7 6 10 11 9 10 11 10 11 10
8 8 9 9 9 11 13 13 11 9 8 8 8 6 7 5 1 8 15 17 17 16 14 15 16 19 21 21 21 21 18 15 14 15 16 16 16 15 14 13 12 11 11 10 10 10 9 8 9 8 8 8 8 8 8 8 8 9 8 8 8 7 7 7 7 8 8 8 8 9 8 8 7 4 4 6 6 11 13 10 11 11 9 11 11
8 8 9 9 10 12 13 12 11 10 10 10 9 8 10 11 11 14 16 16 19 19 19 19 18 18 20 22 24 23 20 16 14 14 15 15 14 14 13 12 11 11 11 10 10 10 9 8 8 8 8 8 8 7 8 8 8 8 8 8 7 7 7 7 7 8 8 7 7 8 8 7 6 4 4 7 8 11 13 12 12 10 9 11 11
6 6 6 6 9 12 13 12 11 11 12 13 12 12 15 17 15 15 17 19 21 24 25 23 20 18 18 20 22 22 19 17 14 13 14 14 13 13 12 11 11 10 10 10 10 9 8 7 8 9 8 8 7 6 7 8 8 8 7 7 8 7 7 7 7 8 8 8 8 8 8 7 6 5 6 8 8 11 13 13 13 10 8 9 9
5 5 6 8 10 13 13 13 12 12 13 14 13 13 18 21 17 16 18 18 20 25 27 24 22 22 20 21 22 20 19 18 15 13 14 13 13 13 11 11 11 10 10 10 10 9 7 7 8 9 9 7 6 5 5 7 8 8 8 8 8 8 8 8 8 8 8 9 9 8 9 9 7 7 8 8 7 11 17 16 13 11 9 7 7
6 7 8 8 10 12 13 13 12 13 16 16 15 15 18 19 18 18 19 18 19 25 28 26 24 24 23 22 23 23 22 21 17 16 16 14 13 13 12 11 10 10 10 10 10 8 7 7 8 9 9 7 6 5 4 5 7 7 7 8 8 8 9 8 8 8 8 8 8 8 9 9 8 8 9 8 7 9 15 16 13 11 9 7 6
6 7 8 8 10 12 13 13 12 14 17 16 13 13 16 18 19 21 22 21 23 28 31 29 27 27 25 24 25 25 24 21 20 19 18 15 14 13 13 12 11 10 10 9 9 8 7 7 7 8 8 7 6 5 4 4 5 7 7 7 7 8 9 8 8 8 8 8 8 9 9 8 8 9 9 8 8 7 10 13 12 9 7 7 8
6 7 7 7 8 11 13 13 12 14 17 17 14 13 16 17 18 20 22 21 22 27 32 31 29 28 27 27 27 25 23 20 20 21 19 17 15 14 13 13 12 11 10 10 9 9 8 7 7 7 7 7 7 5 4 4 5 6 6 6 6 7 8 8 8 8 8 8 9 10 9 8 9 9 9 8 9 9 10 12 12 8 4 5 8
4 4 5 6 8 10 12 13 12 13 16 18 17 16 15 16 16 17 19 20 20 21 24 28 30 30 28 28 27 24 21 20 19 21 20 18 16 15 14 14 13 12 11 10 9 9 9 8 8 7 6 7 7 5 5 4 5 5 5 5 5 6 6 6 7 7 7 8 10 11 10 10 10 10 9 9 9 10 11 12 12 9 5 5 7
4 3 4 6 7 8 11 13 12 11 13 16 17 16 15 15 15 17 20 21 21 20 19 22 29 31 30 29 27 23 21 20 20 21 20 18 16 15 15 14 13 12 11 10 9 9 9 9 8 7 6 7 7 6 5 5 5 5 5 5 5 5 5 5 6 6 7 8 10 11 11 11 11 10 10 10 10 11 12 13 13 9 6 6 7
4 4 4 4 5 6 10 13 12 10 10 12 13 13 14 14 15 18 21 21 20 22 20 20 26 30 30 27 25 22 21 21 21 21 19 18 17 15 15 14 13 12 11 10 9 9 8 8 8 7 7 7 8 7 6 6 6 6 6 5 5 5 5 5 5 5 6 8 10 10 11 11 10 9 10 11 11 12 13 14 13 10 8 8 8
7 5 3 2 3 7 11 12 9 8 9 9 9 10 11 13 16 18 20 21 21 21 20 21 26 28 27 25 23 22 21 22 22 21 19 18 17 15 14 13 13 12 10 9 8 8 8 8 8 8 8 8 8 8 6 6 6 5 6 6 6 5 5 5 5 5 5 8 10 11 11 10 9 9 11 11 12 12 13 13 12 10 8 9 8
11 10 8 7 5 3 7 7 5 6 9 6 3 6 10 11 14 17 18 20 20 19 19 22 25 24 23 22 23 23 22 23 22 20 18 17 17 15 14 13 13 11 10 8 8 8 8 8 8 8 9 9 8 8 7 6 5 4 5 7 7 6 6 6 5 4 4 7 10 11 11 10 10 10 11 11 12 13 12 12 12 10 9 9 8
10 10 11 12 12 9 3 2 4 6 9 5 2 3 8 10 12 15 17 18 19 18 18 18 18 20 20 19 21 21 21 22 21 19 19 18 16 15 13 13 13 11 10 9 9 10 9 9 9 8 8 8 8 7 6 6 5 4 4 6 6 6 6 6 5 4 4 6 9 10 11 11 11 11 11 12 13 13 12 12 12 11 10 9 9
11 11 10 11 12 12 11 6 5 6 7 7 3 2 6 10 11 13 15 16 17 16 15 15 17 18 16 14 16 18 18 19 19 19 18 17 16 15 14 14 13 12 11 10 10 10 9 8 8 7 8 7 6 6 6 5 6 5 5 5 5 6 6 6 5 4 4 5 7 9 10 11 10 11 11 12 13 13 12 12 12 10 10 9 9
10 10 9 9 10 10 12 13 10 6 5 7 6 5 8 11 12 13 14 14 15 14 15 17 17 16 14 12 14 16 16 16 17 17 17 16 16 15 15 14 13 12 11 10 9 8 7 7 7 7 7 6 6 5 5 5 6 6 6 5 5 5 5 5 4 4 4 4 5 8 9 10 9 10 11 11 12 12 11 11 10 9 8 9 9
10 10 9 9 9 9 10 13 14 10 9 10 9 9 10 12 14 14 14 15 15 14 16 18 17 16 14 13 14 14 14 15 16 18 18 17 17 16 14 13 13 11 11 10 9 8 7 7 7 6 6 6 5 5 4 4 5 6 6 5 5 5 6 5 4 3 3 3 4 6 8 9 9 9 10 10 10 11 10 9 9 8 8 9 9
11 11 10 10 10 10 10 11 12 12 11 11 11 11 12 13 16 15 14 15 15 15 15 16 17 16 15 15 16 16 16 16 17 18 18 17 17 17 15 13 11 10 10 9 8 7 7 7 6 6 6 5 4 4 4 4 4 5 5 5 5 6 6 6 5 4 4 3 3 5 6 8 9 9 10 10 10 10 9 8 8 8 8 8 8
11 11 10 11 11 11 12 12 12 11 11 10 10 12 14 15 16 16 14 13 14 16 17 17 17 17 16 16 18 19 19 18 17 19 21 21 20 20 18 15 12 10 9 8 8 7 6 6 6 6 6 5 3 4 5 5 4 4 4 4 5 6 7 7 6 6 5 5 4 4 5 6 7 8 8 8 8 9 9 8 8 7 7 7 7
11 11 11 11 12 12 12 13 12 11 11 11 10 12 16 17 18 19 18 16 17 19 19 18 18 18 17 16 17 18 19 18 18 21 23 24 23 19 16 13 10 8 7 6 6 6 6 7 8 7 6 5 5 5 6 5 5 4 4 3 3 4 6 7 7 6 6 6 6 5 4 4 5 5 5 6 6 7 7 8 7 7 7 7 7
11 11 11 12 12 13 13 13 12 12 12 12 14 15 17 19 20 21 20 20 20 19 18 18 18 17 16 16 16 16 16 16 18 19 19 19 18 12 8 9 9 9 8 6 5 6 7 9 9 7 6 5 4 5 7 7 6 5 4 4 3 4 6 7 8 7 7 7 7 6 6 5 5 5 5 5 6 6 6 7 7 8 9 9 9
11 11 12 12 13 14 15 15 14 14 13 14 19 20 19 20 23 23 23 23 22 21 19 19 18 16 15 14 14 14 15 15 15 15 15 14 13 11 10 11 12 12 11 9 8 8 9 10 10 10 9 8 6 4 4 6 7 7 6 5 4 4 5 6 6 6 6 6 7 7 7 7 7 8 7 7 7 7 7 7 8 9 9 9 10
12 12 13 14 16 17 17 16 15 15 13 16 22 23 22 23 25 26 25 24 23 22 22 23 21 18 16 14 14 14 15 15 14 15 16 16 15 15 15 15 15 14 14 13 13 13 11 11 12 13 12 10 8 6 4 3 4 5 6 6 4 4 5 5 5 5 5 5 5 6 6 7 7 8 8 8 7 7 7 8 8 8 9 9 10
12 12 14 16 18 18 18 18 17 15 14 18 23 24 25 25 25 27 27 25 24 23 22 23 23 20 18 17 17 16 16 16 15 16 19 19 19 18 18 18 17 17 17 16 16 15 13 12 11 12 12 11 10 7 5 4 3 3 4 4 3 4 4 4 5 5 5 5 5 5 6 6 6 6 7 8 7 6 6 7 8 9 9 10 10
13 14 15 17 18 19 21 22 20 18 18 22 24 25 26 26 26 27 26 24 24 24 22 23 23 22 21 22 22 21 20 18 18 18 18 18 18 19 19 18 18 18 17 17 16 15 14 12 11 11 11 11 9 7 5 4 3 3 3 3 0 2 3 3 3 4 4 5 5 5 6 7 7 7 9 10 8 7 8 8 9 10 11 11 12
16 16 17 18 19 22 26 27 25 23 22 23 24 25 27 26 24 23 21 21 23 23 20 21 22 21 21 22 23 23 23 21 21 21 19 18 17 18 19 18 18 17 17 16 15 14 13 12 11 10 9 8 7 6 5 4 3 2 3 2 1 2 1 1 2 2 2 3 4 5 6 6 5 6 8 10 10 9 10 10 12 13 13 14 15
16 15 16 18 18 21 25 27 25 24 24 24 24 25 25 23 19 18 19 20 21 19 18 18 18 17 17 18 19 19 19 20 20 20 19 17 16 15 15 14 14 13 13 13 13 11 11 11 10 9 8 6 4 4 3 2 2 1 2 3 2 2 1 1 1 2 2 3 5 8 7 5 4 6 9 11 12 11 11 11 13 14 15 16 17
16 16 16 17 18 21 24 25 22 21 20 21 24 26 26 23 18 17 18 19 19 17 16 16 16 15 15 15 16 15 15 16 16 16 15 14 14 13 11 10 9 8 8 8 9 8 7 7 7 7 6 5 2 1 1 1 1 1 1 2 3 2 1 2 2 2 2 3 5 7 8 8 8 10 12 13 13 13 12 12 13 14 16 17 17
17 18 19 20 23 25 25 23 19 17 16 17 21 26 25 20 17 18 19 18 17 15 14 14 14 14 14 14 14 14 14 13 13 12 11 10 10 10 10 8 7 6 5 6 7 6 6 6 5 4 4 3 2 2 4 3 3 3 1 1 3 2 2 3 3 3 3 4 4 4 6 9 11 12 14 15 15 15 14 13 13 14 16 17 17
15 17 18 20 23 25 24 21 19 17 15 14 16 21 20 16 17 19 18 16 15 14 13 13 13 13 14 13 13 13 13 12 11 10 9 8 8 7 7 6 5 4 5 5 5 4 4 4 4 4 3 2 2 3 5 6 5 5 5 2 2 3 4 3 4 5 4 5 4 3 4 9 11 12 14 15 16 16 17 18 17 17 18 18 18
16 18 18 18 18 19 20 19 18 19 17 14 15 16 16 16 18 18 16 13 13 12 12 12 13 13 14 13 13 12 11 10 10 9 8 8 7 6 6 5 4 4 4 4 3 3 3 3 3 3 3 3 4 5 6 8 7 7 6 4 3 6 6 5 5 6 5 5 5 4 6 12 14 13 14 16 17 18 18 20 22 22 21 21 21
14 15 17 18 15 14 16 16 16 17 16 16 16 16 14 15 17 16 14 14 13 12 12 12 13 13 13 12 12 11 10 9 9 8 7 7 6 6 5 5 4 3 3 3 3 2 2 2 2 1 2 3 3 4 6 8 7 7 7 6 5 6 6 5 6 7 7 7 6 6 10 15 17 16 16 17 18 20 20 21 22 22 22 22 22
11 11 13 14 13 12 14 15 15 14 14 15 17 17 15 15 14 12 12 14 14 13 12 12 12 11 10 10 10 10 9 8 8 7 7 7 6 5 5 5 4 3 2 2 2 2 1 1 1 1 1 2 2 2 4 7 7 6 5 6 6 6 6 7 7 7 7 7 8 9 13 17 17 18 19 19 19 21 22 23 22 21 21 22 22
8 7 8 9 10 11 13 14 13 12 11 12 13 14 14 13 11 9 10 10 11 11 11 10 10 10 9 8 8 9 9 9 8 7 7 6 6 5 5 5 4 3 3 2 2 2 2 2 2 1 1 1 2 1 1 6 9 9 8 9 9 8 7 7 6 7 8 9 12 14 16 17 17 17 18 19 19 20 21 23 23 21 20 20 21
7 6 7 8 9 10 11 12 12 11 10 10 11 11 12 10 8 8 8 8 8 9 10 9 9 9 9 8 7 7 7 8 7 6 6 6 6 5 5 5 4 3 3 2 3 3 2 2 2 2 2 2 2 2 2 4 8 9 9 10 11 10 10 10 7 6 7 10 13 15 15 15 16 16 17 18 18 19 21 22 23 22 19 17 17
7 6 6 6 7 9 9 10 10 9 9 9 9 9 9 8 7 8 8 7 8 8 8 8 8 8 8 8 7 7 6 6 7 6 6 6 6 6 6 5 5 4 4 3 3 3 3 3 3 3 3 2 2 2 4 5 7 7 7 8 8 8 9 9 7 6 8 10 12 14 13 12 13 13 14 15 16 16 17 17 16 15 14 13 14
6 5 4 5 6 7 8 9 8 8 7 8 8 8 8 7 7 7 7 7 8 7 6 7 7 7 7 7 7 7 6 6 6 7 7 8 7 6 6 7 7 6 5 5 5 4 4 5 4 4 4 3 2 4 6 8 9 9 8 8 7 6 7 7 6 7 10 12 12 12 11 10 10 10 10 11 11 11 11 11 11 10 11 13 14
7 5 5 5 6 7 7 8 7 7 6 6 6 6 6 6 6 6 6 6 6 6 6 6 5 6 6 5 6 6 6 5 6 6 7 9 10 9 7 5 5 6 3 2 3 4 5 5 5 5 6 5 4 5 7 10 10 10 9 8 7 7 7 8 8 10 12 13 10 9 9 8 8 8 8 9 9 9 9 9 10 11 13 14 14
7 5 5 5 5 6 7 7 6 6 6 6 6 5 5 4 4 4 4 4 4 4 4 5 5 5 5 4 4 5 5 5 5 4 5 6 8 9 8 4 2 5 4 2 2 3 4 5 4 5 6 6 7 8 10 11 9 8 8 7 7 8 9 10 10 11 12 10 8 8 8 9 9 9 9 9 9 9 9 10 10 11 12 12 12
6 5 5 6 5 5 6 6 5 5 5 5 6 6 6 5 4 4 4 4 3 3 3 4 5 5 5 4 4 4 4 4 4 4 3 3 3 4 7 8 5 2 2 2 3 3 4 5 5 5 6 8 10 11 11 10 9 7 6 6 7 9 9 10 11 11 9 7 8 9 9 9 10 10 10 10 10 11 11 11 11 11 11 11 11
Wind_Direction
203 209 204 201 203 199 200 203 200 199 197 192 189 188 188 187 188 191 193 193 191 190 187 184 182 176 178 186 187 185 179 175 180 181 177 178 178 177 178 176 178 179 179 182 183 184 183 178 172 169 173 187 194 189 180 173 169 168 162 159 161 155 150 150 147 139 130 129 132 125 118 122 135 141 148 149 157 175 187 183 161 139 136 139 136
202 208 199 201 206 196 200 208 204 198 197 195 193 193 192 192 194 195 196 198 197 194 189 186 183 179 184 189 187 184 180 177 181 179 174 173 173 177 179 178 179 179 180 185 186 187 187 183 178 175 178 186 190 183 178 171 169 170 163 163 164 158 157 157 156 151 145 148 142 127 126 122 125 137 143 146 151 168 186 185 168 146 140 137 126
200 207 198 202 205 196 203 213 209 200 198 198 196 196 197 197 197 195 194 197 198 197 193 189 185 184 191 190 183 185 185 180 177 172 169 170 172 177 180 179 180 181 185 187 187 189 190 187 182 181 183 184 185 181 176 173 172 173 170 170 165 160 163 163 169 178 165 157 146 128 139 139 139 149 148 151 151 163 180 179 172 156 140 135 127
197 203 201 204 204 198 204 212 208 203 202 201 200 201 201 201 199 196 195 196 198 200 197 190 185 185 186 182 182 187 186 176 170 167 166 169 173 178 184 182 183 186 188 188 186 187 188 188 184 183 185 185 187 186 182 179 175 173 175 174 169 164 164 168 180 202 187 169 147 115 141 153 164 160 146 149 152 160 170 170 173 168 156 154 137
196 199 201 204 203 198 203 207 206 207 207 204 204 205 203 202 200 193 191 196 198 201 201 192 185 182 174 172 177 178 178 173 168 168 167 170 176 183 187 186 187 188 188 189 187 184 184 186 185 183 186 188 190 192 189 184 177 175 176 173 174 172 166 171 183 195 191 192 77 91 138 184 171 158 153 148 146 154 163 168 175 174 170 168 147
197 197 202 207 205 199 199 201 207 214 215 211 210 210 207 201 194 187 190 197 197 199 205 197 184 179 173 173 173 169 177 180 171 167 166 171 179 183 186 186 188 188 188 190 188 186 185 185 188 186 185 188 190 193 189 182 178 178 179 177 179 178 170 171 180 186 187 200 39 104 175 235 180 162 168 149 123 119 117 143 167 167 179 165 128
199 200 202 204 207 204 195 195 208 219 222 219 216 214 208 197 186 188 195 198 197 201 205 199 187 182 177 176 177 174 178 178 169 164 164 169 175 176 181 184 187 187 187 189 186 185 184 184 188 187 183 184 186 188 185 180 179 179 182 183 182 183 179 177 176 176 179 189 189 152 200 223 186 172 179 148 131 111 95 111 130 132 142 124 110
200 204 202 194 199 207 198 196 210 221 224 222 220 217 209 196 185 189 192 189 198 207 203 201 194 184 180 178 179 180 177 171 166 163 161 165 168 169 175 180 184 187 185 185 183 180 179 180 184 186 183 182 183 187 184 180 177 175 181 184 185 186 187 184 176 177 185 179 180 190 175 170 172 179 197 167 151 135 118 117 109 107 118 119 113
195 198 200 189 187 193 195 201 211 218 222 222 225 219 210 199 181 182 188 185 198 207 202 204 197 181 181 179 179 183 177 167 163 160 159 160 161 164 172 176 179 184 183 182 178 175 178 178 180 185 183 180 184 186 181 179 174 171 178 183 186 190 194 188 176 185 201 179 175 196 177 160 163 166 202 198 154 145 151 142 128 122 125 125 119
190 190 191 189 187 191 200 207 206 205 211 216 230 218 209 204 179 173 180 186 200 205 204 204 188 172 176 173 179 178 165 163 160 155 157 159 161 164 169 173 174 179 182 179 175 175 180 179 179 183 182 181 184 183 177 174 171 171 177 182 189 192 197 189 175 186 204 190 191 205 187 174 173 164 188 196 158 153 155 147 151 151 139 133 128
179 179 178 181 183 185 189 178 132 140 167 170 185 202 211 220 184 163 168 181 194 199 203 196 175 171 169 165 177 169 158 170 163 156 161 162 164 166 168 171 172 174 177 177 176 177 179 178 178 182 182 182 181 179 176 172 169 172 178 185 194 198 200 190 177 188 199 194 203 212 203 206 206 180 180 187 173 155 145 152 161 156 142 140 141
164 167 161 158 164 161 145 120 118 145 158 159 178 194 197 222 222 153 160 176 183 181 185 175 166 173 167 163 173 167 167 178 165 161 166 164 165 168 168 168 168 168 170 175 177 176 178 178 178 181 182 182 178 175 174 172 171 172 178 188 196 203 204 194 187 193 194 195 205 209 209 219 231 203 172 192 184 144 146 161 159 154 145 141 144
159 163 158 166 172 156 142 135 145 158 146 149 172 174 161 175 155 122 145 174 187 183 178 165 164 176 172 168 170 168 173 176 163 164 168 166 167 168 168 166 164 165 168 174 175 174 176 178 181 183 181 181 174 168 168 170 173 174 177 186 195 201 199 193 194 195 194 198 207 212 212 214 225 217 173 201 186 143 153 163 154 158 152 141 147
165 171 176 190 182 153 142 145 155 153 138 138 140 130 124 117 110 122 145 181 194 184 178 173 173 180 181 177 172 168 170 169 165 168 169 168 168 167 167 164 163 166 167 170 170 172 176 175 181 181 175 174 168 164 168 171 175 177 175 179 186 191 189 186 192 192 192 200 209 217 219 215 216 211 192 208 191 156 159 161 155 160 153 148 157
158 169 171 163 147 142 144 142 144 147 140 131 126 129 134 132 131 143 160 181 183 174 174 174 173 179 186 185 176 168 169 169 169 172 170 169 168 166 166 164 163 162 161 162 162 168 175 174 179 178 171 167 163 164 172 176 178 175 172 175 176 176 176 181 188 190 191 199 209 212 214 212 205 200 208 215 195 163 160 162 159 158 155 156 160
131 135 126 121 125 133 138 138 139 142 134 130 142 151 142 141 147 152 161 173 174 172 174 170 169 178 186 185 178 172 175 175 173 175 174 171 168 167 166 163 160 156 153 154 156 160 166 171 177 175 170 163 157 163 172 178 179 172 171 174 170 168 171 177 184 191 192 197 205 206 206 208 202 203 210 215 202 165 161 168 168 164 163 159 159
124 127 123 131 136 133 138 147 149 147 140 144 167 170 152 149 153 153 161 171 171 169 167 164 171 180 184 184 180 178 182 182 181 181 178 174 171 169 165 160 157 154 151 150 154 154 151 158 166 166 165 159 153 156 162 173 179 175 174 173 168 166 170 179 186 189 191 193 198 200 204 201 191 197 202 202 201 166 160 170 174 170 171 166 164
116 124 128 136 137 136 145 152 148 147 148 155 175 178 164 161 158 158 165 172 174 170 164 164 175 181 184 185 182 181 186 187 189 188 182 177 175 169 163 160 156 155 155 154 155 152 147 150 156 159 161 157 151 148 149 169 180 177 172 168 165 164 166 175 182 181 181 185 188 191 197 190 177 186 191 185 188 174 165 173 177 177 182 183 178
113 120 127 133 134 137 146 146 141 145 147 150 166 181 177 166 159 164 170 173 176 172 166 170 178 182 183 183 181 183 187 189 190 190 184 179 176 168 163 159 155 155 158 159 159 158 156 156 155 156 157 157 153 144 146 166 176 174 170 164 162 164 166 167 168 170 172 174 176 178 182 178 172 179 181 177 180 178 172 173 179 181 182 190 187
105 118 124 128 131 135 143 145 139 141 144 148 163 178 175 163 161 168 170 170 173 174 173 175 178 181 182 181 180 181 184 187 188 186 183 179 173 167 162 158 155 155 157 159 161 160 161 163 162 160 158 160 157 144 140 151 155 156 159 159 159 162 166 165 161 163 165 165 167 171 175 172 170 173 173 172 176 175 174 176 178 177 163 176 190
92 99 103 115 128 136 143 143 134 133 143 153 167 174 165 158 162 167 167 168 171 174 177 178 177 179 180 180 181 180 181 185 183 180 179 177 172 166 161 158 155 155 157 159 159 159 161 165 167 167 164 165 163 152 144 144 142 139 135 138 148 157 161 161 160 161 161 162 163 167 169 166 168 170 164 167 172 172 176 178 176 172 158 164 184
77 95 103 113 128 140 144 142 137 138 145 155 167 166 157 155 156 160 164 165 167 171 177 180 177 176 178 178 178 178 182 185 181 179 177 174 171 166 161 158 155 155 158 159 158 159 162 165 169 172 169 168 167 160 152 149 147 145 141 134 137 150 153 149 154 159 160 162 163 166 166 164 168 167 162 167 172 171 175 175 172 167 152 156 175
35 42 62 112 131 139 143 142 140 143 142 150 167 161 154 157 156 157 159 158 163 170 175 177 176 175 175 177 177 178 184 186 181 178 176 172 169 164 160 158 155 154 156 157 159 161 163 164 165 166 164 165 169 165 161 159 154 151 153 148 139 142 146 145 150 157 162 165 165 165 166 166 165 165 167 170 169 171 174 172 170 168 156 154 167
28 21 16 9 15 101 149 144 127 127 121 119 171 161 150 157 158 155 153 151 157 166 170 172 173 173 172 174 177 180 182 183 179 174 171 168 165 163 159 156 154 152 153 154 155 156 155 154 156 157 157 159 164 167 168 166 159 152 156 156 149 143 144 143 141 142 158 169 167 164 167 168 164 166 170 168 166 170 173 172 173 174 168 163 164
35 28 21 16 11 3 344 150 124 109 103 99 257 199 151 152 154 150 147 147 153 160 163 160 155 161 171 174 170 169 172 174 172 169 168 166 162 159 155 152 152 150 150 151 150 149 148 151 154 154 153 154 158 163 167 169 164 157 154 160 159 151 145 140 132 123 134 161 168 167 167 168 167 167 167 165 166 171 172 173 176 177 178 178 176
32 32 26 26 25 16 5 19 93 107 110 127 180 195 135 132 134 140 144 145 148 150 146 138 135 149 170 173 157 153 158 162 163 163 163 160 156 151 146 146 148 146 146 148 148 148 151 155 155 153 152 152 155 160 165 171 173 168 161 161 160 155 150 143 136 123 113 139 164 168 167 168 171 170 167 165 168 172 175 175 178 180 181 183 188
36 37 31 29 29 24 17 19 34 56 89 114 130 134 130 127 124 132 140 141 145 143 136 137 139 147 164 164 145 142 147 151 153 154 152 148 145 141 138 140 141 140 141 141 141 142 146 150 150 150 151 149 149 154 158 163 168 169 167 166 163 163 162 155 146 133 113 115 148 164 168 171 175 175 171 168 169 172 178 180 182 186 189 192 198
43 38 32 31 25 22 27 25 25 37 61 82 100 110 120 124 121 126 134 136 141 141 137 141 143 145 152 144 127 128 134 138 143 145 143 138 134 132 131 133 133 131 130 130 130 133 134 135 138 142 147 150 154 152 148 152 160 163 165 170 172 173 174 173 170 159 137 117 132 155 168 172 176 179 175 172 174 176 181 188 190 193 198 204 209
48 38 30 33 31 24 29 33 29 36 52 68 82 88 92 103 110 116 126 133 139 137 133 135 135 136 137 130 126 129 131 132 135 137 135 129 126 127 127 126 128 128 127 127 129 133 135 133 133 135 135 140 148 153 153 150 146 154 163 168 175 183 185 184 185 182 173 167 148 144 158 166 169 174 174 174 179 179 182 191 195 196 200 206 213
51 46 35 36 41 34 33 39 39 42 52 61 76 90 89 85 90 95 94 99 114 121 121 122 123 126 126 127 133 136 133 130 127 125 127 127 128 131 130 126 124 123 128 135 133 132 134 135 133 125 123 135 160 177 179 174 160 157 159 156 166 184 191 190 189 185 179 178 169 152 151 156 159 165 170 175 182 183 185 190 192 196 200 203 210
51 50 43 40 42 38 34 37 38 45 56 57 63 83 86 81 86 92 89 87 93 100 105 108 112 118 118 114 118 123 125 124 121 123 128 131 133 134 133 134 136 138 151 163 156 138 124 119 119 119 129 161 190 196 196 195 185 174 166 158 163 178 188 192 191 187 183 180 176 169 164 163 162 166 173 185 194 195 196 201 206 210 210 209 215
51 49 45 44 44 40 35 35 35 36 47 60 68 71 73 78 86 94 100 104 102 96 95 96 101 109 112 110 113 117 120 122 124 128 132 137 142 145 149 161 169 177 186 191 178 145 122 120 128 133 135 148 175 197 203 208 207 199 186 180 180 177 183 190 191 190 189 185 183 184 184 186 189 191 195 203 210 213 213 217 224 228 227 227 231
52 50 48 48 48 43 38 37 35 29 35 65 81 76 73 82 90 94 99 102 99 97 96 95 96 96 98 107 116 119 122 124 129 132 131 135 143 147 152 159 162 167 169 162 146 128 112 118 134 137 129 124 131 157 185 203 211 211 203 190 188 187 184 188 191 190 190 189 190 194 196 202 209 212 216 220 221 225 230 232 235 240 244 246 246
57 54 52 52 49 46 45 44 38 32 42 71 82 80 80 86 91 94 95 93 91 92 91 92 94 91 89 96 101 104 110 114 119 127 129 130 131 129 130 135 138 142 142 138 133 122 105 103 114 118 116 113 112 113 123 153 179 195 197 190 193 203 198 196 196 195 197 197 198 205 207 210 217 222 223 222 222 227 234 238 243 247 251 256 258
62 58 55 55 50 43 41 42 37 36 53 72 79 82 83 83 85 87 86 85 87 85 82 85 91 93 96 100 98 94 96 98 102 112 119 122 122 119 118 122 126 130 129 128 127 120 108 99 99 104 106 104 100 100 107 118 126 146 161 165 188 208 203 205 204 203 210 213 215 226 231 229 228 229 230 232 235 240 241 244 248 250 251 253 254
68 64 59 58 56 51 47 47 43 42 52 65 73 80 81 79 80 83 82 81 83 81 79 84 89 91 96 102 103 101 100 100 102 104 105 107 110 112 113 116 119 121 121 120 118 113 108 101 94 94 95 95 95 95 98 105 113 128 124 106 166 213 197 202 201 203 215 217 217 227 236 243 245 245 252 260 264 258 254 254 255 255 255 252 250
71 68 66 64 63 60 59 56 50 44 48 58 69 77 79 76 75 78 79 78 78 75 72 78 84 86 89 96 101 101 101 104 106 105 102 101 104 109 110 111 113 112 112 111 108 105 106 105 101 95 88 85 88 87 85 87 90 103 101 63 348 268 249 246 232 237 239 228 236 241 240 252 265 260 260 268 269 261 255 254 255 256 256 254 253
71 68 66 64 61 60 62 61 53 45 49 61 69 75 76 73 68 69 72 72 71 70 67 69 74 76 78 86 92 93 95 99 102 103 105 106 108 111 113 116 116 111 106 105 103 101 104 107 110 110 103 92 86 78 73 71 60 82 92 46 351 299 292 312 295 289 280 269 276 273 262 261 274 260 254 261 264 259 253 252 254 255 254 253 252
70 66 62 61 60 60 62 60 49 38 43 58 70 75 73 66 61 62 66 65 63 64 64 66 69 71 73 76 78 78 81 86 89 91 96 101 107 111 113 115 113 106 101 102 103 100 99 99 106 117 115 103 83 27 349 7 347 285 136 53 356 332 344 339 310 290 280 269 276 282 275 266 259 254 255 262 264 259 253 251 254 254 252 252 253
70 68 66 64 63 61 58 53 43 33 32 46 66 75 70 62 58 59 58 58 57 56 58 62 65 68 70 72 74 74 74 76 78 80 81 84 89 97 101 99 91 85 83 87 92 95 97 96 96 102 108 101 71 350 323 322 324 310 285 62 29 3 353 347 322 292 279 265 250 254 266 263 256 254 256 258 256 252 248 246 249 254 255 256 257
74 73 70 65 64 63 61 54 49 47 41 38 56 68 64 56 58 57 54 52 52 53 55 57 59 61 62 65 68 70 71 72 73 76 78 77 76 79 85 82 75 73 76 83 92 99 102 103 94 83 74 62 44 10 340 326 325 323 311 321 1 318 299 316 311 286 275 271 255 232 250 258 258 262 265 264 260 254 246 241 242 246 250 254 257
78 77 75 71 67 66 65 61 58 59 56 51 54 58 57 56 58 59 58 58 56 56 58 58 59 59 58 57 58 59 62 64 65 68 71 72 71 70 72 73 76 79 78 77 86 95 99 99 93 86 73 38 11 4 354 341 336 333 324 315 307 291 286 299 306 294 283 277 273 273 269 266 266 272 275 273 272 269 261 253 249 246 243 245 250
82 80 81 80 75 69 67 67 65 63 62 65 68 64 59 59 59 61 69 74 71 67 66 65 63 60 57 55 52 52 55 58 59 63 67 67 67 64 63 62 63 64 64 62 62 69 88 96 92 90 79 54 14 354 358 359 352 342 336 330 314 299 295 296 296 294 291 289 291 290 276 273 277 279 277 276 277 279 277 274 270 266 258 252 251
93 91 89 86 83 80 76 74 69 61 58 66 72 70 63 60 61 62 69 74 73 69 68 67 65 61 57 55 52 50 54 58 60 65 71 72 73 73 71 68 62 56 56 53 43 36 38 66 100 105 83 72 59 357 352 5 10 9 1 351 337 319 306 296 290 291 294 292 288 282 279 281 284 281 277 276 276 278 280 280 280 278 272 265 260
99 98 92 86 87 87 85 79 71 62 59 64 69 70 67 63 59 55 57 61 59 57 57 57 56 52 49 49 50 50 51 54 58 64 67 67 68 70 70 68 62 55 51 38 23 22 16 3 11 31 27 34 53 66 2 2 11 15 9 358 353 347 335 323 305 287 284 283 282 282 286 289 288 285 281 279 276 277 279 279 277 276 273 268 264
108 103 96 92 92 90 87 83 75 66 66 67 66 68 69 65 57 50 51 52 49 48 48 46 45 43 39 38 42 47 50 52 54 59 60 56 53 55 57 53 49 46 42 31 21 13 9 7 1 3 8 14 26 56 62 23 14 9 357 350 350 347 345 347 341 312 301 302 298 296 297 296 293 292 289 285 281 278 277 277 280 280 275 267 261
117 109 102 99 97 94 90 86 78 70 68 68 66 64 64 61 55 50 50 51 51 52 51 47 43 39 38 39 42 45 48 50 49 48 49 48 45 48 50 47 39 31 22 22 26 17 10 12 5 356 5 12 26 59 51 24 9 0 347 341 342 340 340 346 346 330 323 320 310 305 306 303 298 296 292 288 287 282 277 276 278 279 274 265 260
117 109 102 100 100 100 99 94 87 81 73 69 66 63 60 57 54 51 51 52 51 51 52 51 46 41 40 41 43 43 44 47 47 48 47 44 39 38 42 40 30 20 12 8 11 15 16 8 358 358 360 359 23 51 29 1 350 348 344 340 338 335 336 337 328 314 316 318 309 302 303 300 293 290 289 286 283 279 275 273 271 270 268 264 264
137 132 125 120 116 113 110 105 103 100 92 83 75 67 62 57 54 54 56 57 55 57 57 53 48 46 48 49 46 42 40 39 43 48 49 45 39 35 41 38 9 350 348 356 360 8 12 1 354 357 358 356 4 8 351 341 339 340 340 340 336 332 334 333 323 318 321 321 309 296 296 297 292 290 289 285 281 279 278 276 273 272 268 264 265
147 139 133 128 120 113 106 101 98 96 91 86 82 75 70 68 66 68 68 66 68 76 73 64 58 54 54 60 57 49 43 42 46 55 59 55 48 43 43 41 318 302 317 355 15 4 4 3 357 351 346 343 340 336 334 335 337 335 335 334 334 337 340 338 337 337 333 320 305 302 304 306 306 302 296 292 289 288 288 285 280 276 270 266 266
155 150 146 138 127 118 109 99 90 84 78 72 68 64 62 66 73 75 72 70 78 87 79 69 66 61 54 56 56 49 48 58 63 62 63 81 98 63 32 23 17 351 355 22 27 15 12 14 7 351 338 333 333 337 341 341 337 334 332 333 341 349 349 349 355 357 347 322 317 324 321 314 313 308 301 297 295 292 290 286 284 281 275 271 270